Wind_Speed
3 4 5 6 5 5 3 5 8 6 7 9 11 6 14 21 20 20 23 22 26 27 18 20 19 18 18 20 18 16 16 14 13 14 14 13 14 13 16 16 13 16 19 18
4 5 4 4 6 5 6 5 3 4 5 10 7 4 11 18 25 25 23 24 28 26 20 17 19 21 22 19 17 13 12 15 15 15 16 19 19 19 17 12 13 17 23 12
6 5 5 4 3 3 3 3 0 3 5 5 5 3 5 9 16 22 22 26 24 23 18 12 15 18 24 26 22 17 13 16 17 18 18 19 21 22 16 16 17 17 15 11
4 5 5 1 1 4 5 5 4 4 3 3 2 4 5 5 11 11 20 23 18 19 19 16 9 19 25 30 26 24 20 19 21 25 23 23 22 21 13 13 13 15 18 13
7 5 4 3 4 5 6 2 3 3 5 5 2 3 5 1 8 15 16 18 20 24 25 23 23 18 15 27 29 23 23 19 19 24 23 21 16 10 13 14 16 13 8 7
6 1 1 6 3 5 5 4 6 4 3 2 3 3 5 4 4 3 6 17 27 31 30 19 9 8 12 7 13 19 19 19 21 23 25 25 10 7 12 12 11 11 8 6
4 3 3 3 2 4 6 6 4 4 3 5 3 3 7 6 5 6 12 22 24 29 21 19 11 4 9 16 12 11 4 5 17 11 21 13 9 8 13 13 12 11 8 7
6 7 6 4 7 6 5 7 5 3 2 4 1 3 5 2 5 4 11 20 20 20 18 19 14 10 9 11 14 7 4 7 17 8 27 10 11 9 9 9 10 10 10 11
5 5 5 3 4 7 3 3 4 7 3 3 3 5 8 2 2 4 11 16 16 15 17 18 13 4 9 10 8 7 6 19 11 3 11 6 8 8 10 12 11 10 12 12
6 1 3 4 3 2 3 5 3 3 4 3 4 4 5 6 7 3 4 7 10 10 12 13 12 8 9 13 7 6 5 6 13 2 10 8 8 9 10 11 12 14 15 17
6 4 5 2 3 7 1 1 6 5 4 5 3 6 6 10 7 7 5 5 7 6 5 6 8 4 7 6 3 1 7 13 25 8 15 11 13 14 14 16 17 18 18 18
8 6 5 11 5 3 3 7 6 5 4 2 2 5 3 4 8 10 8 12 9 6 6 10 11 9 9 7 4 2 13 19 17 13 10 13 16 17 18 17 16 17 18 18
8 1 1 9 6 2 4 5 4 5 4 7 6 6 3 6 8 11 16 15 12 10 13 16 14 13 14 12 9 10 13 11 9 6 10 14 16 15 14 15 16 16 17 18
16 4 7 9 9 4 4 4 5 5 4 6 6 4 6 6 7 9 14 16 15 15 16 16 14 15 13 11 10 10 9 5 1 3 9 12 12 12 13 15 14 15 16 16
5 9 8 7 7 5 5 4 7 8 2 6 8 11 9 14 12 17 20 18 19 22 23 20 17 15 13 12 11 7 6 3 4 11 15 14 12 12 14 15 14 13 13 14
3 3 7 5 5 7 3 2 6 4 4 3 7 4 3 17 19 21 22 21 22 22 21 20 18 16 14 12 11 8 2 5 9 11 11 10 12 12 13 12 12 13 15 17
4 5 4 7 3 6 1 8 6 4 4 6 6 8 10 8 15 25 27 24 25 23 21 20 18 17 16 15 9 4 2 5 6 7 7 6 8 10 12 12 14 15 18 18
6 5 2 3 3 3 7 1 2 3 3 6 3 7 9 15 13 23 25 26 25 28 24 22 21 21 19 14 8 3 2 4 4 2 5 8 10 12 12 11 12 14 15 17
1 5 3 5 4 3 2 4 7 8 7 5 8 11 14 23 18 9 21 21 24 29 24 22 23 22 18 11 6 2 3 6 6 6 7 9 10 10 8 8 10 13 16 18
6 6 4 3 5 7 9 4 11 4 2 8 15 16 21 20 4 4 26 22 25 23 22 24 24 20 15 10 5 3 3 4 2 3 6 8 10 12 12 13 13 13 14 16
3 2 5 3 3 5 7 4 10 7 8 21 26 28 26 6 5 24 30 25 24 24 24 22 18 13 9 6 3 2 3 3 6 7 8 11 13 14 14 12 11 11 11 12
6 6 5 2 4 2 9 6 9 8 12 30 29 28 26 16 20 36 33 31 28 26 24 20 17 13 10 6 3 1 2 6 7 10 11 11 11 11 10 9 9 10 11 12
4 5 3 7 6 3 23 13 21 19 30 28 34 34 34 27 31 35 35 30 29 27 24 18 13 11 8 6 2 1 5 8 9 8 8 7 6 6 6 7 8 9 11 14
5 4 3 3 3 5 10 14 13 15 23 34 38 39 33 31 31 34 33 32 30 26 21 17 13 10 8 5 3 3 7 8 6 5 4 4 5 6 7 7 7 10 14 15
3 3 3 6 8 3 7 17 18 20 25 33 36 40 35 30 32 34 36 33 29 24 20 15 11 7 5 5 5 5 7 8 6 4 5 5 5 6 7 5 6 9 11 15
7 6 5 5 4 2 7 19 24 27 32 35 41 34 30 28 34 35 34 30 27 23 18 14 8 6 7 7 6 8 10 9 6 6 7 5 6 6 7 7 6 5 9 11
Wind_Direction
45 86 214 184 154 158 178 211 236 251 217 175 200 173 186 191 209 215 214 222 226 227 229 240 240 237 239 238 242 241 248 249 256 254 261 275 282 299 301 335 320 293 300 295
30 211 183 147 157 167 193 232 262 283 296 177 154 192 196 192 212 215 210 214 227 238 243 260 256 252 250 250 250 250 252 254 260 269 277 281 293 295 303 310 301 304 287 293
175 217 160 140 124 34 217 248 222 272 359 42 108 336 194 217 215 225 228 228 226 233 237 238 299 267 257 251 249 251 260 268 267 273 273 278 291 290 311 317 321 324 321 305
230 231 212 211 122 136 309 210 254 142 124 217 181 257 238 231 216 231 225 226 205 194 194 171 194 311 258 248 244 244 254 268 270 269 272 275 284 292 304 327 326 327 327 332
236 173 136 142 204 169 239 291 279 322 143 103 273 88 274 120 228 224 219 203 191 197 199 193 163 249 263 247 248 251 254 270 284 280 279 281 293 307 324 324 324 322 329 345
207 317 162 175 181 185 254 26 35 54 95 56 305 124 286 207 227 275 202 200 193 198 203 193 180 192 239 244 257 250 252 262 265 279 286 286 311 312 305 308 314 315 326 327
354 234 252 161 11 350 76 60 341 353 17 211 300 81 243 269 298 244 214 189 198 204 179 183 197 201 246 253 260 261 240 342 323 294 329 284 272 288 292 303 310 320 331 343
157 319 180 171 169 184 183 155 152 250 237 281 318 231 254 235 338 350 170 179 192 197 191 206 229 231 222 231 241 199 263 315 313 328 298 302 279 280 291 310 314 323 325 329
131 262 278 225 136 145 167 177 184 106 17 73 290 293 301 288 65 85 129 172 179 187 181 189 195 210 257 236 219 244 317 213 297 255 279 282 262 272 286 289 296 304 306 305
198 341 239 269 119 42 156 155 75 15 136 222 287 274 240 256 236 161 178 156 191 201 187 202 211 244 247 233 235 303 319 246 194 316 313 318 302 293 300 303 306 308 308 303
137 123 280 93 170 192 58 31 54 115 118 159 170 260 218 214 191 189 197 146 155 163 213 205 207 227 185 188 174 193 208 190 210 262 295 318 322 324 317 315 311 307 305 306
197 159 195 220 238 173 152 210 153 122 228 143 158 267 308 192 143 180 144 140 141 143 184 180 163 144 135 135 138 153 177 204 219 246 285 313 319 317 313 309 312 317 318 318
177 230 252 324 347 76 195 188 140 113 88 190 146 255 3 105 144 155 150 146 146 151 158 149 144 138 125 123 121 117 140 167 207 277 308 311 311 314 317 323 327 328 330 331
147 136 169 220 208 178 199 181 168 141 138 169 218 218 236 192 171 152 153 158 149 147 151 148 137 127 125 136 139 140 147 163 139 338 324 320 316 320 325 328 330 334 335 336
122 192 173 226 210 185 244 194 177 208 191 163 220 192 214 190 179 162 162 154 144 140 143 143 140 135 135 148 157 153 140 113 332 325 325 318 324 336 337 336 341 346 343 346
3 230 167 236 181 187 239 204 182 176 152 264 124 253 165 135 166 154 163 170 160 157 157 152 150 148 150 155 155 152 114 350 333 324 319 328 335 342 346 355 1 1 4 8
134 131 114 240 181 119 330 219 199 170 178 148 169 216 153 143 159 174 177 184 184 173 172 165 162 162 161 164 159 147 297 325 332 331 341 349 8 13 19 29 31 36 35 32
141 122 106 169 105 177 240 9 123 137 153 170 118 146 159 162 170 181 188 185 183 176 177 172 169 168 168 163 176 203 340 351 356 38 45 51 43 34 31 47 50 43 38 34
139 123 110 139 171 262 309 203 163 168 232 178 130 129 118 130 130 148 186 187 182 180 176 174 174 171 162 170 182 129 91 117 109 76 51 48 41 36 45 58 53 57 59 50
87 76 114 150 146 185 227 219 175 104 273 173 142 148 144 145 132 212 177 184 174 174 169 166 166 165 165 151 108 64 119 150 140 67 71 60 53 49 70 75 77 69 51 45
63 49 178 181 178 280 247 181 159 128 230 165 157 162 156 162 165 166 169 172 172 170 166 163 161 159 154 147 124 181 142 120 91 75 83 87 72 68 84 72 58 46 36 25
180 158 191 123 91 175 148 101 172 194 158 161 170 169 161 151 142 158 166 167 168 166 164 168 166 164 161 150 181 157 107 103 91 98 99 86 76 70 66 56 36 23 14 8
263 176 195 187 208 284 179 199 211 168 155 164 171 177 170 154 155 164 164 165 163 165 166 166 173 173 168 172 225 144 125 117 109 99 92 74 58 45 34 20 15 6 359 356
220 170 190 7 289 264 264 198 191 177 171 177 181 179 175 161 166 166 165 163 164 167 170 174 180 185 182 191 203 166 143 139 117 89 75 80 40 17 1 351 350 359 359 352
239 127 178 263 274 286 228 205 186 182 172 173 175 179 177 170 167 167 162 165 169 171 172 175 182 188 194 181 172 164 146 138 127 99 100 76 31 9 1 359 9 14 7 1
192 185 171 232 214 207 248 199 183 176 173 172 170 167 173 176 167 167 164 169 169 168 171 174 182 189 180 175 179 157 140 131 120 121 109 72 71 56 51 46 36 342 341 346
Height
1482 1491 1500 1496 1498 1499 1503 1510 1508 1497 1489 1494 1499 1504 1504 1505 1508 1507 1508 1513 1513 1514 1517 1522 1526 1528 1529 1530 1531 1532 1533 1535 1536 1535 1535 1537 1539 1541 1543 1543 1541 1540 1541 1539
1489 1497 1487 1488 1493 1497 1502 1503 1505 1492 1484 1490 1498 1503 1501 1502 1499 1503 1504 1508 1510 1515 1520 1526 1526 1529 1529 1529 1528 1529 1531 1532 1533 1535 1535 1537 1539 1540 1542 1542 1540 1540 1521 1538
1493 1488 1483 1486 1492 1495 1499 1499 1500 1502 1493 1494 1500 1509 1506 1500 1501 1501 1504 1505 1512 1517 1521 1527 1527 1527 1528 1528 1528 1528 1529 1531 1533 1535 1535 1535 1536 1537 1539 1538 1538 1536 1534 1533
1487 1480 1482 1484 1490 1491 1503 1489 1489 1494 1505 1521 1497 1529 1509 1501 1499 1498 1500 1503 1509 1509 1509 1516 1518 1524 1524 1525 1524 1525 1529 1532 1533 1534 1532 1532 1534 1535 1536 1536 1535 1533 1532 1532
1486 1481 1481 1485 1486 1486 1495 1483 1488 1489 1504 1509 1507 1518 1508 1502 1503 1496 1495 1501 1503 1505 1506 1505 1503 1511 1519 1522 1523 1526 1529 1530 1531 1530 1531 1531 1530 1533 1534 1534 1533 1532 1530 1528
1480 1477 1478 1480 1479 1480 1479 1484 1492 1502 1509 1527 1513 1515 1516 1508 1499 1494 1495 1496 1497 1497 1498 1511 1513 1515 1519 1521 1521 1522 1523 1526 1528 1527 1527 1529 1529 1530 1531 1529 1529 1529 1528 1526
1484 1480 1476 1476 1481 1479 1485 1503 1532 1527 1532 1534 1517 1519 1510 1497 1493 1492 1489 1490 1494 1497 1505 1513 1515 1517 1521 1521 1519 1519 1519 1520 1523 1526 1510 1522 1528 1527 1529 1527 1526 1525 1524 1523
1502 1508 1477 1472 1478 1486 1489 1499 1529 1533 1541 1530 1511 1517 1502 1493 1492 1488 1486 1489 1493 1499 1508 1514 1517 1514 1517 1519 1515 1516 1515 1522 1525 1525 1525 1531 1530 1528 1527 1526 1526 1524 1523 1521
1502 1499 1473 1470 1469 1474 1488 1501 1492 1524 1530 1532 1530 1511 1491 1487 1490 1489 1491 1492 1497 1502 1508 1511 1511 1514 1517 1515 1518 1514 1514 1514 1522 1519 1532 1531 1529 1526 1526 1526 1525 1524 1522 1520
1480 1497 1476 1470 1469 1471 1476 1481 1506 1517 1531 1534 1531 1521 1511 1493 1488 1490 1492 1495 1497 1502 1507 1509 1512 1513 1512 1513 1514 1511 1513 1511 1519 1524 1528 1529 1527 1525 1525 1525 1524 1522 1520 1518
1475 1487 1486 1471 1478 1483 1485 1491 1502 1509 1518 1536 1542 1524 1485 1484 1486 1491 1492 1497 1499 1501 1502 1505 1507 1510 1511 1512 1511 1512 1514 1515 1518 1522 1526 1529 1527 1524 1524 1523 1521 1520 1517 1514
1466 1483 1497 1486 1469 1469 1471 1481 1488 1512 1515 1526 1523 1510 1477 1478 1484 1488 1495 1500 1501 1502 1502 1504 1508 1509 1510 1510 1510 1513 1515 1519 1521 1524 1525 1527 1524 1524 1523 1522 1520 1516 1514 1510
1463 1485 1501 1494 1481 1472 1474 1475 1480 1491 1501 1514 1518 1505 1480 1482 1486 1489 1493 1498 1501 1502 1504 1504 1509 1510 1511 1513 1515 1516 1519 1521 1522 1524 1526 1526 1525 1525 1524 1521 1515 1513 1509 1507
1450 1478 1479 1490 1487 1470 1473 1470 1477 1479 1500 1506 1502 1484 1484 1484 1488 1491 1492 1495 1499 1502 1504 1505 1508 1510 1511 1516 1520 1522 1522 1524 1525 1527 1528 1528 1527 1525 1521 1515 1512 1508 1508 1506
1449 1469 1472 1466 1464 1465 1463 1463 1472 1477 1472 1477 1473 1481 1471 1474 1480 1486 1493 1498 1501 1504 1506 1507 1508 1510 1513 1517 1521 1522 1524 1524 1526 1527 1526 1525 1524 1518 1515 1513 1511 1509 1508 1504
1452 1462 1464 1462 1461 1463 1464 1459 1466 1467 1470 1470 1476 1472 1463 1472 1480 1487 1493 1497 1501 1506 1509 1509 1510 1512 1514 1519 1522 1524 1524 1524 1525 1526 1525 1523 1519 1516 1515 1513 1511 1510 1506 1500
1454 1465 1471 1477 1460 1464 1476 1462 1459 1458 1459 1463 1471 1458 1463 1471 1476 1481 1488 1494 1498 1503 1507 1510 1511 1514 1517 1521 1524 1525 1526 1527 1526 1526 1524 1523 1518 1517 1516 1513 1511 1508 1505 1506
1455 1463 1471 1478 1467 1487 1457 1447 1447 1451 1451 1456 1455 1456 1459 1463 1472 1480 1486 1491 1496 1500 1505 1509 1513 1517 1520 1523 1525 1525 1526 1526 1525 1525 1524 1521 1518 1516 1513 1513 1515 1512 1511 1510
1441 1455 1474 1479 1485 1467 1450 1450 1448 1448 1452 1448 1455 1458 1465 1469 1475 1483 1486 1492 1495 1499 1504 1508 1513 1517 1519 1522 1524 1524 1524 1524 1524 1524 1522 1521 1519 1517 1516 1516 1517 1516 1515 1513
1442 1447 1457 1477 1472 1480 1451 1435 1433 1438 1463 1444 1449 1456 1461 1468 1481 1478 1483 1490 1495 1501 1504 1508 1514 1517 1520 1521 1521 1523 1526 1526 1525 1524 1524 1522 1520 1518 1517 1518 1518 1517 1515 1513
1455 1455 1463 1470 1464 1457 1434 1432 1438 1464 1458 1436 1444 1451 1458 1464 1465 1469 1481 1490 1496 1500 1504 1509 1514 1516 1519 1521 1523 1526 1526 1525 1523 1522 1522 1521 1520 1519 1519 1519 1518 1517 1516 1514
1448 1460 1464 1467 1464 1452 1427 1437 1445 1426 1425 1428 1441 1449 1455 1460 1464 1470 1478 1485 1491 1497 1502 1507 1511 1514 1517 1519 1522 1522 1521 1521 1522 1522 1522 1521 1520 1520 1520 1519 1518 1517 1516 1514
1453 1440 1447 1444 1440 1419 1415 1416 1418 1418 1418 1428 1437 1446 1452 1457 1465 1472 1478 1485 1490 1496 1502 1507 1511 1514 1516 1518 1518 1517 1518 1519 1520 1520 1521 1521 1521 1521 1520 1519 1518 1517 1515 1512
1440 1437 1441 1435 1420 1419 1417 1414 1419 1419 1419 1424 1431 1442 1452 1456 1465 1471 1477 1485 1491 1498 1503 1507 1511 1515 1515 1515 1515 1516 1516 1518 1519 1520 1521 1522 1521 1520 1520 1519 1518 1516 1514 1512
1433 1431 1433 1433 1420 1416 1414 1414 1417 1420 1421 1426 1435 1442 1449 1456 1465 1471 1476 1485 1491 1496 1503 1507 1511 1512 1513 1515 1516 1516 1516 1518 1519 1520 1521 1521 1521 1521 1520 1518 1517 1516 1514 1511
1425 1424 1431 1426 1412 1411 1408 1412 1415 1418 1421 1425 1431 1444 1452 1456 1460 1470 1478 1486 1491 1497 1503 1506 1508 1510 1513 1514 1516 1516 1517 1518 1519 1520 1522 1523 1523 1522 1521 1519 1517 1515 1513 1511